Regional Weather Roundup
Issued by NWS

Home | Current Version | Previous Version | Graphics & Text | Print | Product List | Glossary On
Versions: 1 2 3 4 5 6 7 8 9 10 11 12 13 14 15 16 17 18 19 20 21 22 23 24 25 26 27 28 29 30 31 32 33 34 35 36 37 38 39 40 41 42 43 44 45 46 47 48 49 50
000
ASUS44 KMEG 220210
RWRTN
TENNESSEE HOURLY STATE WEATHER ROUNDUP
NATIONAL WEATHER SERVICE MEMPHIS TN
800 PM CST TUE FEB 21 2017

TNZ002-004-019-021-049-052-054-088>092-220300-
WEST TENNESSEE

CITY           SKY/WX    TMP DP  RH WIND       PRES   REMARKS
MEMPHIS INTL   CLOUDY    61  58  90 E6        29.88S
NWS MEMPHIS      N/A     61 N/A N/A MISG        N/A
JACKSON        CLOUDY    61  60  97 E5        29.91S
UNION CITY     CLOUDY   N/A N/A N/A CALM      29.91S
PARIS          CLOUDY    57  55  94 CALM      29.92S
HUNTINGDON     CLOUDY    61  59  94 S5        29.91R
$$

TNZ008-025-027-028-033-062-065-066-220300-
NORTH MIDDLE TENNESSEE

CITY           SKY/WX    TMP DP  RH WIND       PRES   REMARKS
NASHVILLE      LGT RAIN  59  55  87 E6        29.95F
PORTLAND       CLOUDY    59  55  88 S6        29.96S
CLARKSVILLE    MOCLDY    60  55  83 SE6       29.93S
SMYRNA         LGT RAIN  58  57  97 NE3       29.96F
COOKEVILLE     CLOUDY    55  54  94 CALM      29.97R
GALLATIN       CLOUDY    59  57  94 CALM      29.99S
CROSSVILLE     CLOUDY    54  52  93 CALM      30.01S
$$

TNZ061-075-076-078-094-096-097-220300-
SOUTH MIDDLE TENNESSEE

CITY           SKY/WX    TMP DP  RH WIND       PRES   REMARKS
FAYETTEVILLE   CLOUDY    57  55  94 SE6       29.94S
TULLAHOMA      CLOUDY    57  54  88 SE7       29.96R
WINCHESTER     CLOUDY    57  54  88 SE12      29.96R
MCMINNVILLE    CLOUDY    61  55  82 E5        29.96F
COLUMBIA       CLOUDY   N/A N/A N/A NE3       29.92R
SHELBYVILLE    CLOUDY    57  57 100 CALM      29.96R
$$

TNZ017-018-042-046-047-220300-
NORTHEAST TENNESSEE

CITY           SKY/WX    TMP DP  RH WIND       PRES   REMARKS
TRI CITIES     CLOUDY    59  44  57 CALM      30.05S
ELIZABETHTON   MOCLDY    59  45  58 E7        30.06S
$$

TNZ012-013-036-069-073-074-220300-
CENTRAL EAST TENNESSEE

CITY           SKY/WX    TMP DP  RH WIND       PRES   REMARKS
KNOXVILLE      CLOUDY    62  48  60 N6        29.98F
OAK RIDGE      CLOUDY    60  51  72 CALM      30.00F
GATLINBURG     MOCLDY    57  46  67 CALM      29.98F
MORRISTOWN     MOCLDY    61  46  59 CALM      29.99F
JACKSBORO      CLOUDY    57  54  88 CALM      30.02S
$$

TNZ083-085-099-220300-
SOUTHEAST TENNESSEE

CITY           SKY/WX    TMP DP  RH WIND       PRES   REMARKS
CHATTANOOGA    CLOUDY    57  56  96 CALM      29.99F FOG
$$

SKY/WX REPORTED AS FAIR MEANS FEW OR NO CLOUDS BELOW
12 THOUSAND FEET.





USA.gov is the U.S. government's official web portal to all federal, state and local government web resources and services.